Skip Page Navigation
NASA JPL Caltech
NASA Logo - Jet Propulsion Laboratory + View the NASA Portal
+ Center for Near-Earth Object Studies
JPL Home Earth Solar System Stars & Galaxies Technology
JPL Solar System Dynamics
BODIES ORBITS EPHEMERIDES TOOLS PHYSICAL DATA DISCOVERY FAQ SITE MAP
JPL Small-Body Database Browser
Search: [ help ]  
85354 (1995 UA67)
Classification: Main-belt Asteroid          SPK-ID: 2085354
Ephemeris | Orbit Diagram | Orbital Elements | Mission Design | Physical Parameters | Discovery Circumstances ]

[ show orbit diagram ]
Orbital Elements at Epoch 2459000.5 (2020-May-31.0) TDB
Reference: JPL 12 (heliocentric ecliptic J2000)
 Element Value Uncertainty (1-sigma)   Units 
e .1908404457774835 4.0391e-08  
a 2.430591455692756 9.263e-09 au
q 1.966736298785408 9.722e-08 au
i 3.451549165244686 4.3337e-06 deg
node 113.8332470006298 6.719e-05 deg
peri 341.6691885249473 6.8472e-05 deg
M 143.4563099685399 1.084e-05 deg
tp 2458448.951723271921
(2018-Nov-26.45172327)
4.1433e-05 TDB
period 1384.096521551769
3.79
7.9122e-06
2.166e-08
d
yr
n .2600974674774767 1.4869e-09 deg/d
Q 2.894446612600104 1.1031e-08 au
  Orbit Determination Parameters
   # obs. used (total)      617  
   data-arc span      8570 days (23.46 yr)  
   first obs. used      1995-10-17  
   last obs. used      2019-04-04  
   planetary ephem.      DE431  
   SB-pert. ephem.      SB431-N16  
   condition code      0  
   norm. resid. RMS      .53599  
   source      ORB  
   producer      Otto Matic  
   solution date      2019-Jul-13 09:48:57  

Additional Information
 Earth MOID = .983887 au 
 Jupiter MOID = 2.28289 au 
 T_jup = 3.480 
[ show covariance matrix ]

Ephemeris | Orbit Diagram | Orbital Elements | Mission Design | Physical Parameters | Discovery Circumstances ]

Physical Parameter Table
Parameter Symbol Value Units Sigma Reference Notes
absolute magnitude H 16.6   n/a MPO432397  

85354 (1995 UA67)          Discovered 1995-Oct-17 by Spacewatch at Kitt Peak
Reference: 20040830/Numbers.arcLast Updated: 2004-09-06

Alternate Designations
 1995 UA67 = 2000 AR147 
Ephemeris | Orbit Diagram | Orbital Elements | Mission Design | Physical Parameters | Discovery Circumstances ]
ABOUT SSD CREDITS/AWARDS PRIVACY/COPYRIGHT GLOSSARY LINKS
FirstGov 2020-Sep-23 19:03 UT
(server date/time)  
NASA Home Page
Site Manager:   Ryan S. Park
Webmaster  Alan B. Chamberlin